Location: Hermaringen
(48.5952°N, 10.2585°E)
Time: 10:59:39
(UTC+00:00)

A-11 Canister half - Pass Details

Date: 16 February 2026
Orbit: 1513 x 1687 km, 47.2° (Epoch: 11 March)

Event Time Altitude Azimuth Distance (km) Brightness Sun altitude
Rises 19:09:46 0° 198° (SSW) 4,928 11.8 -25.0°
Reaches altitude 10° 19:13:30 10° 188° (S) 3,941 11.1 -25.6°
Enters shadow 19:19:48 27° 151° (SSE) 2,813 10.0 -26.6°
